loading
|

CZ-2D R/B, 61445

Orbit data source: Space-Track

CZ-2D R/B, 61445 is space debris in LEO originally from a launch on Fri, 27 Sep 2024 UTC launched from the Jiuquan Satellite Launch Center, China (JSC). Debris objects in space refer to the collection of defunct objects orbiting the Earth. Examples of debris include non-operational satellites, rocket bodies, and fragments generated from explosions, collisions, or faulty payload assembly.

Loading next visibility...
Next conjunction unknown
Loading greatness...
CZ-2D R/B details
Identifier
61445, 2024-177B
Orbit
LEO
Last TLE update12 hours ago
Origin
Flag of CNCASC (CN / PRC)
ManufacturerBWYIC
MissionSpacecraft
Bus & MotorCZ-2 STAGE 2, Unknown motor
Mass4,006 kg wet, 4,006 kg dry
Launch date (UTC)
2024-09-27 (3 weeks ago)
Launch vehicleUnknown
Launch site
Jiuquan Satellite Launch Center, China (JSC)
Object type
Payload
Rocket body
Debris
Shape & HBRUnknown
Radar Cross SectionLarge (>1 m²)

Expand to show TLE details & history

TLE from 12 hours ago
0 CZ-2D R/B
1 61445U 24177B   24288.07792657  .00282865  35429-4  10012-2 0  9992
2 61445  41.3912  54.7642 0018517  10.2985 349.8239 15.87936300  2649
Epoch: 2024-10-14T01:52Z
Definitive object data (Epoch: 2024-10-14T01:52:12.855Z)
Latitude0.00001°
Longitude3.60042°
Altitude295.472 km
Speed7.739 km/s
True Right ascension03h 39m 03s
True Declination0° 00' 00"
Sunlit
Object was in full shadow at TLE epoch
Predictive object data (real-time)
Latitude0.91994°
Longitude1.4439°
Altitude294.766 km
Speed7.74 km/s
Apparent Right ascension00h 45m 46s
Apparent Declination-28° 51' 42"
Sunlit
Object is in full shadow
Predictive observer data (real-time)
Local Sidereal Time08:30:56
Azimuth261.22° W
Elevation-37.394°
Doppler factor1
Orbital elements
Apogee322.727 km
Perigee297.957 km
Semi-major axis6,688.479 km
Eccentricity0.0018517
Inclination41.3912°
RAAN54.7642°
Arg. of periapsis10.2985°
True anomaly349.78633°
Mean anomaly349.8239°
Eccentric anomaly349.80512°
Mean motion3.96782 °/min
BSTAR0.0010012
Period90.73 mins
No data available
No data available
Other satellites on launch #177 in the year 2024 (2024-09-27 UTC)

CZ-2D R/B Visibility forecast

Observer location: 39.9160978°, -105.1181434

Span
Click to sort rows by Start time (UTC) header in descending order
Start Az.
Max El. time (UTC)
Max El. Az.
Max El.
End time (UTC)
End Az.
5 mins2024-10-14 14:14:59.803Z270.725° WNW2024-10-14 14:17:59.803Z48.595° ENE37.674°2024-10-14 14:19:59.803Z77.049° E